TimeEST,TemperatureF,Dew PointF,Humidity,Sea Level PressureIn,VisibilityMPH,Wind Direction,Wind SpeedMPH,Gust SpeedMPH,PrecipitationIn,Events,Conditions,WindDirDegrees,DateUTC
12:15 AM,38.5,34.2,84,29.91,10.0,NE,12.7,-,N/A,,Overcast,50,2012-12-08 05:15:00
12:35 AM,38.3,34.2,85,29.91,10.0,NE,10.4,-,N/A,,Overcast,50,2012-12-08 05:35:00
12:50 AM,38.3,34.0,84,29.91,10.0,NE,11.5,-,N/A,,Overcast,50,2012-12-08 05:50:00
1:10 AM,38.3,34.0,84,29.91,10.0,NE,10.4,-,N/A,,Overcast,50,2012-12-08 06:10:00
1:30 AM,37.8,34.2,87,29.89,10.0,NE,9.2,-,N/A,,Overcast,50,2012-12-08 06:30:00
1:50 AM,37.4,33.8,87,29.89,10.0,ENE,11.5,-,N/A,,Overcast,60,2012-12-08 06:50:00
2:10 AM,37.0,33.3,86,29.89,10.0,NE,9.2,16.1,N/A,,Overcast,40,2012-12-08 07:10:00
2:31 AM,36.7,32.9,86,29.89,10.0,NE,10.4,-,N/A,,Overcast,40,2012-12-08 07:31:00
3:11 AM,36.0,32.0,86,29.90,10.0,NE,8.1,-,N/A,,Overcast,40,2012-12-08 08:11:00
3:31 AM,36.0,32.0,86,29.90,10.0,NNE,11.5,-,N/A,,Overcast,30,2012-12-08 08:31:00
3:51 AM,35.4,31.6,86,29.90,10.0,North,9.2,-,N/A,Snow,Light Snow,10,2012-12-08 08:51:00
4:11 AM,34.2,31.6,90,29.89,4.0,North,9.2,-,N/A,Snow,Light Snow,10,2012-12-08 09:11:00
4:31 AM,33.1,32.0,96,29.89,2.5,NNE,11.5,-,N/A,Snow,Light Snow,20,2012-12-08 09:31:00
4:52 AM,32.5,32.0,98,29.88,2.5,NNE,9.2,-,N/A,Snow,Light Snow,30,2012-12-08 09:52:00
5:12 AM,32.4,32.0,99,29.87,4.0,NNE,9.2,-,N/A,Snow,Light Snow,30,2012-12-08 10:12:00
5:32 AM,32.2,32.0,99,29.88,4.0,North,10.4,-,N/A,Snow,Light Snow,10,2012-12-08 10:32:00
5:52 AM,32.0,31.8,99,29.89,2.5,North,9.2,-,N/A,Snow,Light Snow,360,2012-12-08 10:52:00
6:12 AM,32.0,31.6,99,29.89,1.8,North,10.4,-,N/A,Snow,Light Snow,10,2012-12-08 11:12:00
6:32 AM,32.0,31.6,99,29.89,1.5,North,10.4,-,N/A,Snow,Light Snow,10,2012-12-08 11:32:00
6:52 AM,31.8,31.1,97,29.89,1.5,NNE,8.1,-,N/A,Snow,Light Snow,20,2012-12-08 11:52:00
7:12 AM,31.8,31.1,97,29.90,1.2,North,9.2,-,N/A,Snow,Light Snow,10,2012-12-08 12:12:00
7:32 AM,31.8,31.3,98,29.90,1.0,North,8.1,-,N/A,Snow,Snow,10,2012-12-08 12:32:00
7:53 AM,31.5,31.1,99,29.91,1.8,North,9.2,-,N/A,Snow,Light Snow,360,2012-12-08 12:53:00
8:13 AM,31.6,31.1,98,29.92,2.0,North,8.1,-,N/A,Snow,Light Snow,360,2012-12-08 13:13:00
8:33 AM,31.5,31.1,99,29.92,1.0,North,10.4,-,N/A,Snow,Light Snow,360,2012-12-08 13:33:00
8:53 AM,31.5,31.1,99,29.94,0.8,North,8.1,-,N/A,Snow,Light Snow,360,2012-12-08 13:53:00
9:13 AM,31.5,30.9,98,29.94,1.2,North,8.1,-,N/A,Snow,Light Snow,10,2012-12-08 14:13:00
9:33 AM,31.5,30.9,98,29.94,1.0,NNE,6.9,-,N/A,Snow,Light Snow,20,2012-12-08 14:33:00
9:53 AM,31.6,31.1,98,29.96,3.0,North,5.8,-,N/A,Snow,Light Snow,10,2012-12-08 14:53:00
10:14 AM,31.8,31.1,97,29.96,5.0,North,8.1,-,N/A,Snow,Light Snow,360,2012-12-08 15:14:00
10:34 AM,31.6,30.7,96,29.98,5.0,North,4.6,-,N/A,Snow,Light Snow,350,2012-12-08 15:34:00
10:54 AM,31.8,30.7,96,29.97,4.0,North,5.8,-,N/A,Snow,Light Snow,350,2012-12-08 15:54:00
11:14 AM,32.0,30.9,96,29.97,4.0,NNW,4.6,-,N/A,Snow,Light Snow,330,2012-12-08 16:14:00
11:34 AM,32.0,30.9,96,29.97,7.0,NNW,5.8,-,N/A,Snow,Light Snow,340,2012-12-08 16:34:00
11:54 AM,32.0,30.7,95,29.97,10.0,NNW,4.6,-,N/A,,Overcast,340,2012-12-08 16:54:00
12:14 PM,32.0,30.6,94,29.97,10.0,NW,4.6,-,N/A,,Overcast,320,2012-12-08 17:14:00
12:34 PM,32.0,30.6,94,29.97,10.0,NNW,6.9,-,N/A,,Overcast,330,2012-12-08 17:34:00
12:55 PM,32.0,30.2,93,29.97,10.0,NNW,5.8,-,N/A,,Overcast,340,2012-12-08 17:55:00
1:15 PM,32.2,30.7,94,29.98,10.0,NW,6.9,-,N/A,,Overcast,320,2012-12-08 18:15:00
1:35 PM,32.5,30.4,92,29.99,10.0,NNW,8.1,-,N/A,,Overcast,340,2012-12-08 18:35:00
1:55 PM,32.9,30.9,92,29.99,10.0,NNW,8.1,-,N/A,,Overcast,330,2012-12-08 18:55:00
2:15 PM,32.9,30.2,90,29.99,10.0,NNW,6.9,-,N/A,,Overcast,340,2012-12-08 19:15:00
2:35 PM,33.1,30.2,89,30.00,10.0,NNW,6.9,-,N/A,,Overcast,330,2012-12-08 19:35:00
2:50 PM,33.3,30.6,90,30.01,10.0,NNW,6.9,-,N/A,,Overcast,340,2012-12-08 19:50:00
3:10 PM,33.1,30.0,89,30.02,10.0,NNW,6.9,-,N/A,,Mostly Cloudy,330,2012-12-08 20:10:00
3:31 PM,33.1,29.8,88,30.03,10.0,NNW,6.9,-,N/A,,Mostly Cloudy,340,2012-12-08 20:31:00
3:51 PM,33.1,29.7,87,30.04,10.0,NNW,8.1,-,N/A,,Scattered Clouds,330,2012-12-08 20:51:00
4:11 PM,32.4,29.1,88,30.04,10.0,NNW,6.9,-,N/A,,Scattered Clouds,330,2012-12-08 21:11:00
4:31 PM,32.0,28.4,87,30.05,10.0,NNW,5.8,-,N/A,,Scattered Clouds,330,2012-12-08 21:31:00
4:51 PM,31.6,28.2,87,30.06,10.0,Calm,Calm,-,N/A,,Scattered Clouds,0,2012-12-08 21:51:00
5:11 PM,30.6,28.0,90,30.07,10.0,Calm,Calm,-,N/A,,Clear,0,2012-12-08 22:11:00
5:31 PM,27.3,26.6,97,30.08,10.0,Calm,Calm,-,N/A,,Clear,0,2012-12-08 22:31:00
5:51 PM,26.8,26.4,99,30.08,7.0,Calm,Calm,-,N/A,,Clear,0,2012-12-08 22:51:00
6:12 PM,26.6,26.4,99,30.09,0.8,Calm,Calm,-,N/A,,Mist,0,2012-12-08 23:12:00
6:32 PM,25.0,24.6,99,30.10,2.0,NNW,3.5,-,N/A,,Mostly Cloudy,330,2012-12-08 23:32:00
6:52 PM,23.5,23.4,99,30.11,0.5,Calm,Calm,-,N/A,Fog,Light Freezing Fog,0,2012-12-08 23:52:00
7:12 PM,23.7,23.4,99,30.12,1.8,NNW,3.5,-,N/A,,Mist,330,2012-12-09 00:12:00
7:32 PM,24.6,24.4,99,30.13,10.0,Calm,Calm,-,N/A,,Clear,0,2012-12-09 00:32:00
7:52 PM,22.6,22.3,99,30.14,10.0,Calm,Calm,-,N/A,,Clear,0,2012-12-09 00:52:00
8:12 PM,22.5,22.1,99,30.14,3.0,Calm,Calm,-,N/A,,Clear,0,2012-12-09 01:12:00
8:53 PM,22.3,21.9,99,30.14,10.0,NNE,4.6,-,N/A,,Clear,30,2012-12-09 01:53:00
9:13 PM,22.1,21.7,99,30.14,10.0,NNE,4.6,-,N/A,,Clear,30,2012-12-09 02:13:00
9:33 PM,22.1,21.7,99,30.14,10.0,NE,4.6,-,N/A,,Clear,40,2012-12-09 02:33:00
9:53 PM,23.4,23.0,99,30.14,10.0,NE,3.5,-,N/A,,Clear,50,2012-12-09 02:53:00
10:13 PM,23.5,23.2,99,30.14,10.0,NE,3.5,-,N/A,,Clear,50,2012-12-09 03:13:00
10:33 PM,24.4,24.3,99,30.15,10.0,Calm,Calm,-,N/A,,Clear,0,2012-12-09 03:33:00
10:53 PM,24.4,23.9,98,30.17,10.0,Calm,Calm,-,N/A,,Mostly Cloudy,0,2012-12-09 03:53:00
11:14 PM,25.5,24.4,96,30.17,10.0,Calm,Calm,-,N/A,,Overcast,0,2012-12-09 04:14:00
11:34 PM,25.7,24.4,95,30.17,10.0,Calm,Calm,-,N/A,,Overcast,0,2012-12-09 04:34:00
11:53 PM,26.4,24.8,94,30.18,10.0,Calm,Calm,-,N/A,,Overcast,0,2012-12-09 04:53:00